Regional Weather Roundup
Issued by NWS Kansas City/Pleasant Hill, MO

Home | Current Version | Previous Version | Graphics & Text | Print | Product List | Glossary Off
Versions: 1 2 3 4 5 6 7 8 9 10 11 12 13 14 15 16 17 18 19 20 21 22 23 24 25 26 27 28 29 30 31 32 33 34 35 36 37 38 39 40 41 42 43 44 45 46 47 48 49 50

000
ASUS43 KEAX 200110
RWREAX

WEATHER ROUNDUP FOR EASTERN KANSAS AND NORTHWEST MISSOURI
NATIONAL WEATHER SERVICE KANSAS CITY/PLEASANT HILL MO
800 PM CDT TUE SEP 19 2017

KSZ040-057-103>105-MOZ028-029-037-043-200200-
...KANSAS CITY METROPOLITAN AREA...

CITY           SKY/WX    TMP DP  RH WIND       PRES   REMARKS
K.C. INTL      PTCLDY    81  70  69 S15       29.71R
K.C. DOWNTOWN  CLEAR     84  71  65 SE16G25   29.70S
LEES SUMMIT    CLEAR     81  71  71 SE15      29.74R
OLATHE - IXD   CLEAR     80  67  64 SE14G23   29.72S
OLATHE - OJC   CLEAR     78  70  76 S14       29.73R
LAWRENCE       CLEAR     80  69  69 SE12      29.69S

$$

MOZ001>008-011>017-020>025-030>033-038>040-044>046-053-054-200200-
...NORTHERN AND CENTRAL MISSOURI...

CITY           SKY/WX    TMP DP  RH WIND       PRES   REMARKS
ST. JOSEPH     CLEAR     81  71  71 S10G21    29.69R
MOSBY          CLEAR     79  68  69 SE8       29.72S
WARRENSBURG    CLEAR     77  68  73 SE9       29.76S
WHITEMAN AFB   PTCLDY    79  73  83 S7        29.76S
CLINTON        CLEAR     77  70  78 SE3       29.78S
SEDALIA        PTCLDY    78  71  79 SE8       29.80S
WARSAW         NOT AVBL
CHILLICOTHE      N/A     81  69  67 SE7       29.76S
KIRKSVILLE     CLEAR     76  66  71 SE9       29.81R

$$

MOZ041-047>049-056>058-063>065-088>090-097-200200-
...EASTERN AND SOUTHERN MISSOURI...

CITY           SKY/WX    TMP DP  RH WIND       PRES   REMARKS
ST. LOUIS INTL CLEAR     82  67  60 SE8       29.86R
SPIRIT OF STL  CLEAR     79  70  74 SE5       29.83R
COLUMBIA       CLEAR     79  69  71 SE7       29.82S
JEFFERSON CITY CLEAR     78  68  71 E5        29.80S
ROLLA          CLEAR     78  66  66 SE7       29.86R
OSAGE BEACH    CLEAR     79  69  71 SE5       29.83S
SPRINGFIELD    CLEAR     77  66  68 S7        29.83R
BRANSON        MOCLDY    79  64  61 CALM      29.87R
JOPLIN         PTCLDY    81  70  69 SE10      29.79S
WEST PLAINS    CLEAR     80  66  62 S6        29.89S

$$

IAZ060-094-KSZ022-034>040-054-083-096-NEZ052-066-093-200200-
...KANSAS...SOUTHEAST NEBRASKA AND IOWA...

CITY           SKY/WX    TMP DP  RH WIND       PRES   REMARKS
TOPEKA         CLEAR     82  72  71 SE18      29.66R
MANHATTAN      CLEAR     86  72  62 S17G28    29.58F HX  92
EMPORIA        CLEAR     82  72  71 S18G26    29.68R
CHANUTE        CLEAR     82  71  69 SE14      29.73S
WICHITA        PTCLDY    88  67  49 S18       29.63R HX  91
OMAHA          MOCLDY    84  68  58 SE22G36   29.58R
LINCOLN        CLOUDY    85  68  56 SE24G33   29.54S
FALLS CITY     CLEAR     81  67  62 SE15G26   29.63S
LAMONI         CLEAR     79  66  64 SE14      29.73S
DES MOINES     PTCLDY    79  68  69 SE15      29.70F

$$




USA.gov is the U.S. government's official web portal to all federal, state and local government web resources and services.